Find Starlink 31688

NORAD ID: 59386 Int'l Des: 2024-062 Owner: SPXS Country: US Constellation: starlink operational
LEOCIRCULAR

当前视图

正在加载3D地球...

About Starlink 31688

Starlink 31688 (NORAD 59386) is a starlink constellation satellite (v2 mini) launched Apr 2, 2024 by SPXS of US. It operates in LEO, CIRCULAR orbit with a mass of 730.00 kg.

即将过境

Passes for default location (London). Set your location on the main map for personalized predictions.

高度历史

Loading altitude history...

两行轨道根数

1 59386U 24062N 26224.46179074 .00000781 00000-0 34272-4 0 9997
2 59386 53.1593 251.9273 0001224 81.0078 279.1064 15.34386698133482
Epoch: Aug 12, 2026 • Age: 25 hours

当前状态

高度 481.6 km
远地点 / 近地点 N/A
速度 7.62 km/s
星下点 -52.00°S, 36.46°E
发射日期 Apr 2, 2024
运行时间 2.3 years
类型 internet

技术详情

分类 Payload
质量 730.00 kg
干质量 700.00 kg
总质量 730.00 kg
长度 0.30 m
直径 4.10 m
跨度 29.00 m
形状 Box + pan
制造商 SPXS
平台类型 Starlink V2M
阶段状态 In Orbit
所有者/国家 SPXS/US

Most Searched